Miscellaneous Local Product
Issued by NWS Hastings, NE

Home | Current Version | Previous Version | Graphics & Text | Print | Product List | Glossary On
Versions: 1 2 3 4 5 6 7 8 9 10 11 12 13 14 15 16 17 18 19 20 21 22 23 24 25 26 27 28 29 30 31 32 33 34 35 36 37 38 39 40 41 42 43 44 45 46 47 48 49 50
000
AXUS43 KGID 281402
MISGRI

GID CWA HOURLY WEATHER ROUNDUP
NATIONAL WEATHER SERVICE HASTINGS NE
900 AM CDT THU MAY 28 2015

NOTE: "FAIR" INDICATES FEW OR NO CLOUDS BELOW 12,000 FEET WITH NO
SIGNIFICANT WEATHER AND/OR OBSTRUCTIONS TO VISIBILITY.

...SOUTH CENTRAL NEBRASKA...

CITY           SKY/WX    TMP DP  RH WIND       PRES   REMARKS
GRAND ISLAND   CLOUDY    65  59  81 SE12      30.05R
HASTINGS       CLOUDY    64  59  83 SE9       30.04S
KEARNEY        CLOUDY    63  57  82 SE9       30.03S
ORD            PTSUNNY   65  59  81 S5        30.00F
YORK           CLOUDY    64  59  82 S9        30.05F
AURORA         CLOUDY    66  59  79 SE13      30.05S
LEXINGTON      CLOUDY    62  62  97 SE5       30.03R FOG
HOLDREGE       CLOUDY    61  58  90 SE10      30.04R
HEBRON         CLOUDY    65  61  86 SE9       30.04F

...NEBRASKA PANHANDLE...

CITY           SKY/WX    TMP DP  RH WIND       PRES   REMARKS
CHADRON        PTSUNNY   61  55  81 W8        29.95F
ALLIANCE       PTSUNNY   61  55  81 SW9       29.99F
SCOTTSBLUFF    MOSUNNY   60  55  83 CALM      30.01R
SIDNEY         LGT RAIN  58  55  90 W8        30.02S FOG

...WESTERN AND NORTH CENTRAL NEBRASKA...

CITY           SKY/WX    TMP DP  RH WIND       PRES   REMARKS
VALENTINE      SUNNY     65  56  72 S10       29.95F
AINSWORTH      SUNNY     67  59  77 S10       29.97F
ONEILL         MOSUNNY   66  60  83 S9        29.99F
BROKEN BOW     PTSUNNY   63  60  90 SE8       30.00F
IMPERIAL       PTSUNNY   61  56  83 S9        29.99F
NORTH PLATTE   MOSUNNY   58  57  97 SE9       29.99S
MCCOOK         CLOUDY    58  56  93 E6        30.01S

...EASTERN NEBRASKA...

CITY           SKY/WX    TMP DP  RH WIND       PRES   REMARKS
NORFOLK        PTSUNNY   71  58  63 S17G26    30.03F
SO SIOUX CITY  PTSUNNY   70  55  59 S14       30.05F
TEKAMAH        CLOUDY    67  57  70 SE8       30.05F
COLUMBUS       CLOUDY    64  57  77 S12       30.05F
ALBION         PTSUNNY   66  57  73 S12       30.03F
OMAHA EPPLEY   CLOUDY    68  57  68 S10       30.06F
OFFUTT AFB     CLOUDY    66  58  75 SE10      30.06F
MILLARD        CLOUDY    66  58  76 SE3       30.06F
LINCOLN        CLOUDY    65  62  90 S10       30.05F
NEBRASKA CITY  CLOUDY    64  62  93 CALM      30.07F
BEATRICE       LGT RAIN  63  61  96 E3        30.04F
FALLS CITY     NOT AVBL

...NORTHERN KANSAS...

CITY           SKY/WX    TMP DP  RH WIND       PRES   REMARKS
GOODLAND       CLOUDY    63  59  87 SW8       30.03R
HILL CITY      CLOUDY    61  56  83 E6        30.04R
NORTON         CLOUDY    59  54  82 SE6       30.03R
PHILLIPSBURG   MOSUNNY   64  59  82 SE5       30.04R THUNDER HAZE
SMITH CENTER   SUNNY     64  59  82 SE13      30.04S
HAYS           CLOUDY    63  54  72 E9        30.03S
RUSSELL        CLOUDY    64  61  90 E8        30.02R
CONCORDIA      CLOUDY    65  62  90 SE7       30.03S
SALINA         CLOUDY    67  63  87 SE10      30.02F
TOPEKA         CLOUDY    67  65  93 NE3       30.05F



USA.gov is the U.S. government's official web portal to all federal, state and local government web resources and services.